Wind_Gust
10 16 18 16 19 12 11 13 21 19 22 17 12 13 11 13 8 9 13 9 15 14 13 12 12 12 15 20 20 17 12 12 12 13 15 16 17 16 15 17 16 16 17 15 16 16 15 16 14 14 15 13 12 13 12 13 11 11 13 10 10 7 8 13 12 9 12 10 8 6 8 9 6 9 5 5 3 6 6 6 6 6 5 6 6 6
16 14 13 15 20 7 13 17 21 20 23 18 13 11 9 6 11 11 8 8 10 13 11 12 15 16 16 16 19 15 13 17 17 16 16 17 17 17 17 17 17 15 9 13 13 13 14 15 15 15 14 13 17 12 13 14 13 11 10 11 10 8 7 10 12 11 8 8 13 12 11 8 7 9 10 6 5 5 6 7 7 6 5 5 5 5
12 15 12 11 15 10 11 14 16 24 24 15 15 14 12 9 6 5 5 5 8 10 12 10 14 13 12 14 15 20 22 23 19 20 21 20 18 17 18 18 15 13 14 14 15 15 15 16 16 16 14 13 16 14 14 14 12 11 11 10 10 10 10 9 8 9 9 4 7 10 10 11 7 3 5 8 5 6 8 6 7 7 6 5 5 4
14 9 10 9 13 11 10 13 17 18 20 17 14 15 14 10 5 10 6 5 6 12 7 4 5 10 5 7 16 20 21 15 12 15 17 18 22 19 20 20 20 18 19 18 18 18 17 17 16 14 14 15 14 14 12 13 14 13 12 9 9 10 8 9 7 7 6 7 5 6 11 7 8 7 6 7 6 6 9 8 7 6 6 4 6 5
8 8 7 10 15 16 12 7 14 16 16 7 10 10 10 7 9 7 7 5 3 3 3 3 6 11 6 9 13 13 12 9 10 9 11 14 16 19 18 19 23 24 23 21 18 16 17 18 18 18 16 15 16 16 15 14 15 13 13 12 12 11 10 9 9 8 9 12 10 11 10 9 10 9 7 8 6 4 7 7 8 7 6 5 6 5
9 6 5 15 17 14 10 8 8 16 13 6 6 8 7 6 7 4 4 4 10 8 5 4 8 13 8 14 18 15 14 18 14 13 16 18 16 15 18 20 20 21 23 25 24 23 22 20 16 15 16 16 16 17 16 15 14 12 12 11 10 7 8 10 7 10 11 12 15 12 12 9 7 8 9 9 10 6 7 9 5 5 6 6 4 3
9 10 9 10 13 14 9 6 5 9 12 8 8 7 11 10 7 5 5 5 5 9 7 4 13 17 9 7 9 13 16 20 14 17 18 17 18 17 20 20 21 20 18 16 20 20 19 18 18 18 18 19 18 16 14 13 13 14 14 12 12 11 10 9 8 9 10 10 12 14 14 13 14 13 9 4 5 10 7 6 6 6 4 6 7 4
9 13 12 13 15 14 9 4 13 17 15 10 9 12 17 13 11 8 6 6 6 4 7 5 9 8 16 15 8 15 18 19 17 17 16 18 17 18 18 20 19 21 20 22 20 21 22 22 24 25 22 20 21 16 14 14 14 15 14 12 12 10 11 10 10 9 10 14 11 10 9 11 12 12 14 10 8 5 7 8 6 6 5 5 5 5
19 18 18 19 16 12 9 19 13 21 20 14 9 15 18 17 13 8 8 5 3 5 10 6 5 7 12 14 6 15 15 15 21 22 21 19 18 18 19 21 21 21 22 22 22 22 22 22 21 20 20 17 16 18 18 16 15 15 14 13 10 11 10 10 10 11 9 12 14 13 12 10 10 9 8 7 6 8 6 8 4 5 4 4 4 4
18 21 26 22 20 20 23 16 19 24 13 8 13 13 14 15 12 8 5 6 6 6 8 9 11 12 16 11 9 6 15 21 26 26 23 20 19 19 20 19 20 20 19 21 24 25 23 22 21 21 18 15 18 17 16 15 15 15 13 12 12 12 11 10 10 10 10 11 12 12 10 12 10 6 6 8 8 7 6 8 6 5 6 6 4 2
20 24 21 21 24 26 18 12 24 16 13 19 18 17 16 14 9 6 7 8 7 6 14 10 13 12 10 11 13 17 22 28 21 12 14 15 14 16 20 21 21 20 20 20 20 21 22 21 21 18 20 18 14 15 17 17 17 16 16 14 13 14 12 10 11 11 12 11 12 13 12 12 11 9 10 9 6 6 5 8 7 6 8 6 6 5
14 14 17 20 20 17 17 16 17 16 26 22 14 12 13 9 9 7 7 9 10 9 14 7 18 9 9 13 10 19 8 9 18 20 21 19 19 19 18 21 22 21 21 21 21 19 17 16 16 15 17 18 17 15 18 17 17 17 17 15 14 11 11 11 12 11 12 13 13 11 13 12 12 12 12 14 13 11 11 9 10 7 6 6 4 4
19 26 24 10 18 20 21 21 13 19 19 12 16 9 11 5 10 7 9 8 5 12 6 6 14 8 16 22 17 13 15 15 16 20 23 22 19 16 17 20 21 22 21 22 22 21 19 21 22 19 18 17 17 20 20 19 18 17 17 17 16 14 12 14 12 13 12 12 13 13 13 11 11 12 13 14 13 12 13 11 8 8 9 7 6 8
11 9 15 13 13 19 24 24 16 10 14 10 20 13 10 7 8 6 7 6 8 10 7 10 9 10 11 16 17 22 19 16 14 15 18 21 21 19 20 20 20 21 23 23 22 22 22 23 23 22 21 21 20 19 22 20 19 17 17 17 18 17 14 12 12 13 13 13 14 13 13 12 12 12 12 12 14 13 12 12 12 12 12 12 12 10
9 13 13 16 12 17 24 23 33 21 22 20 8 14 11 15 12 6 7 7 5 6 10 6 9 12 6 7 10 12 13 11 10 12 14 20 22 21 21 21 22 21 20 22 23 23 24 24 23 23 22 21 21 21 21 20 19 19 19 19 18 17 13 13 14 12 14 14 12 12 13 13 11 13 13 13 13 14 13 11 11 11 10 12 11 12
3 11 15 20 8 20 21 10 16 14 11 10 8 7 9 17 12 6 11 9 7 6 7 6 11 8 8 6 9 8 7 9 9 7 9 13 13 14 17 20 22 22 22 22 22 23 23 24 23 23 21 21 21 22 21 21 21 21 22 20 21 21 17 16 15 14 16 15 13 11 11 12 13 12 13 12 10 11 13 14 14 14 12 13 11 9
16 15 9 10 11 21 16 19 15 20 18 14 7 10 16 8 14 11 5 5 6 12 4 6 12 11 14 7 12 16 13 12 9 8 9 11 11 15 19 20 20 21 22 22 23 23 23 21 22 24 22 22 21 22 24 25 24 24 22 21 20 18 16 17 17 17 15 14 12 13 12 11 11 12 13 14 13 14 13 12 13 13 14 10 9 10
16 12 8 11 10 18 18 18 16 8 17 18 10 16 4 5 10 10 5 7 9 8 6 6 4 9 15 10 17 17 20 16 11 8 7 9 13 16 18 20 22 23 25 26 25 25 26 26 26 25 24 24 25 26 24 25 23 24 24 23 23 21 20 17 17 17 16 15 14 13 13 13 14 15 14 14 14 13 12 11 11 9 9 12 13 11
12 14 11 14 12 12 11 9 7 5 9 12 12 12 14 8 8 9 11 7 4 5 7 8 4 5 3 11 16 19 17 19 16 9 5 8 12 18 18 20 22 22 21 22 23 23 24 25 26 26 25 25 25 25 26 26 24 22 20 23 25 25 23 22 20 17 17 16 16 16 16 16 15 13 13 13 13 12 13 14 13 12 14 12 9 10
5 11 11 10 8 6 9 12 12 13 9 7 7 5 4 14 8 4 7 8 15 5 6 6 9 8 7 9 8 14 13 15 15 10 5 10 15 16 16 18 18 19 21 22 23 24 26 26 26 27 25 25 25 25 23 23 22 22 23 22 21 20 19 18 18 18 18 18 16 15 13 13 14 15 14 14 13 12 13 14 14 14 11 13 11 11
7 8 8 12 7 8 11 12 12 16 12 7 8 8 6 8 5 12 8 5 6 13 7 8 9 7 11 8 7 13 15 15 11 13 9 7 10 13 15 18 17 18 19 20 21 23 24 24 24 24 25 26 23 21 21 23 26 25 22 22 23 23 20 20 20 19 19 18 17 16 16 16 14 14 14 12 13 14 14 13 13 14 15 11 12 11
8 5 4 10 8 10 14 11 9 11 16 15 14 11 12 6 4 3 5 8 9 8 9 11 7 14 17 6 10 12 14 11 11 8 11 10 9 9 10 11 13 16 16 18 18 21 23 22 23 23 21 18 20 21 23 24 21 21 24 25 24 22 22 22 21 20 18 16 18 17 17 16 14 15 14 14 13 13 13 13 13 13 11 12 13 13
8 9 11 4 10 10 8 10 6 11 12 11 8 6 7 9 13 12 8 6 8 6 8 7 13 6 11 8 15 14 11 10 12 9 10 10 10 8 9 9 12 13 15 16 16 19 21 22 23 25 25 26 27 25 24 22 24 25 23 22 22 24 23 22 22 20 19 18 17 18 17 17 16 14 14 14 14 14 14 14 13 12 13 13 12 12
8 11 7 8 11 11 7 7 10 7 8 8 7 5 5 4 7 12 11 11 11 5 6 5 9 10 14 15 15 13 12 9 14 14 13 15 14 11 8 9 6 6 8 9 9 11 17 18 18 18 19 22 21 20 23 24 23 20 21 22 22 24 23 21 20 20 19 18 18 18 17 17 17 16 15 16 16 16 15 15 14 13 14 14 12 14
11 8 10 7 10 14 14 15 17 14 15 10 6 9 4 6 9 6 11 5 13 4 6 11 6 6 14 16 18 22 25 22 19 17 11 13 14 13 12 11 12 10 11 9 11 12 12 13 18 22 23 24 24 23 22 22 22 22 21 20 23 23 22 22 20 20 20 20 20 18 18 17 17 17 17 17 16 16 15 14 14 12 14 13 12 12
13 2 8 8 11 9 6 7 6 6 8 9 5 11 11 10 9 4 8 9 11 7 8 9 5 14 14 18 25 23 24 25 22 16 13 10 11 14 15 14 13 11 10 9 9 9 15 18 20 19 19 22 22 23 23 22 22 21 20 21 20 21 20 21 20 21 21 21 21 21 19 19 18 19 19 18 17 16 16 15 14 13 12 13 14 13
10 6 8 10 15 15 11 11 8 7 9 11 9 11 14 9 9 12 12 12 11 5 10 4 11 8 20 24 21 23 21 19 21 22 23 21 18 16 12 14 14 13 10 9 11 14 13 11 16 19 19 22 22 21 22 23 22 21 21 21 21 21 22 22 22 22 22 22 22 21 21 21 21 20 19 19 18 16 14 15 14 14 15 14 14 14
9 10 5 8 8 6 8 6 4 6 8 8 11 10 13 13 8 11 11 11 9 17 10 6 3 9 12 16 18 20 21 17 17 20 21 20 20 17 13 13 15 19 17 15 14 14 16 17 16 15 14 12 14 16 17 19 21 22 22 23 22 21 22 22 22 22 22 22 22 22 23 23 21 20 20 18 17 16 16 15 15 15 15 13 14 15
9 6 3 6 8 9 10 6 13 18 12 11 14 13 15 13 17 11 4 6 6 10 15 5 6 11 9 13 16 18 19 16 16 18 16 13 16 19 20 21 20 18 17 17 16 16 13 11 10 10 10 12 12 15 16 17 18 17 18 20 21 21 24 23 23 23 23 22 23 24 23 22 20 19 18 18 17 16 16 16 16 15 14 13 15 15
13 5 3 6 12 15 14 14 14 21 15 20 17 15 12 16 16 13 10 8 11 13 11 12 10 14 10 15 16 17 16 15 15 16 17 26 24 20 21 21 20 20 21 19 18 17 16 17 15 12 10 11 14 14 14 16 19 21 22 21 24 26 21 21 24 24 23 23 25 24 22 21 19 19 19 18 19 19 18 17 17 16 15 15 16 15
12 7 4 4 11 13 10 12 16 17 17 20 18 17 15 10 17 16 11 13 9 11 9 9 9 9 6 9 12 12 13 18 24 25 22 19 22 22 21 21 21 21 19 19 20 19 17 16 16 16 14 12 16 18 19 20 20 22 27 27 23 22 20 24 25 24 24 25 24 23 21 20 20 19 19 20 20 18 19 19 17 16 16 16 15 16
11 5 5 8 14 7 5 10 12 17 22 23 20 21 21 16 15 15 16 9 8 6 4 7 12 10 14 15 12 13 17 23 24 23 23 23 22 22 23 23 22 23 22 22 20 20 22 22 21 18 17 16 15 20 21 20 17 19 21 20 20 20 20 24 23 23 24 25 22 22 21 22 20 20 21 19 20 20 20 19 17 17 16 17 15 16
5 12 7 6 13 6 7 6 7 8 11 15 14 15 13 10 9 12 15 18 15 5 9 8 5 7 10 11 11 15 17 20 23 23 21 21 20 20 21 22 23 22 21 22 23 23 24 22 20 18 16 13 17 22 23 18 15 20 22 21 22 19 22 23 22 23 25 23 21 22 22 21 22 24 21 21 21 20 18 18 18 19 18 19 18 13
4 8 6 4 11 11 8 8 6 10 8 8 7 10 16 11 11 20 14 14 14 15 8 5 7 9 9 11 11 13 16 20 17 15 15 19 20 20 21 20 20 20 20 22 21 22 22 24 22 20 19 15 19 24 21 19 23 22 16 17 14 17 19 20 22 22 22 20 19 21 22 21 22 22 23 22 20 18 18 18 21 21 19 18 15 17
5 7 4 5 13 11 8 9 11 9 11 7 5 9 10 14 17 19 13 12 13 13 12 11 11 12 12 8 7 9 12 11 14 17 21 21 19 18 19 20 23 22 22 22 23 24 22 21 22 22 23 22 20 15 13 15 17 13 13 14 16 17 18 22 23 20 19 19 19 19 23 25 24 23 23 21 21 19 18 20 20 19 19 19 19 20
4 10 8 10 9 8 10 9 12 12 8 9 6 6 6 7 6 9 12 11 10 11 12 12 13 13 12 12 10 10 11 10 12 21 22 21 20 19 19 21 21 22 22 21 19 20 22 22 21 20 18 17 17 16 16 16 12 15 17 12 13 15 16 17 18 19 19 22 25 26 25 25 24 26 22 21 20 19 20 19 20 22 20 19 18 18
13 10 12 9 6 11 6 6 9 16 11 10 8 9 10 6 5 6 6 9 7 8 11 11 13 13 13 11 10 10 9 6 16 22 21 20 19 18 18 18 19 20 19 20 18 17 16 15 16 17 16 17 18 21 21 18 14 10 10 13 13 13 14 14 17 19 21 25 26 23 20 23 24 23 23 22 19 20 20 21 21 21 18 18 19 19
6 5 7 13 7 12 13 10 10 8 9 13 7 7 6 9 8 8 13 8 7 10 8 10 11 12 12 13 15 12 7 11 20 17 19 18 18 18 17 18 19 20 21 21 22 22 23 20 18 17 19 18 21 21 19 17 16 14 15 16 15 14 11 11 15 15 16 20 21 19 18 20 21 21 22 19 21 23 23 22 20 20 18 20 20 21
12 15 10 13 11 8 8 12 12 13 14 10 8 9 11 12 8 7 8 9 7 6 9 8 10 11 11 12 14 12 14 13 12 17 17 15 17 18 17 18 19 19 21 21 20 21 22 20 16 17 19 22 24 23 20 19 17 18 19 18 16 16 16 13 12 15 18 22 21 20 18 21 20 21 21 24 28 28 25 22 20 19 17 20 20 23
13 10 10 14 8 5 12 10 9 13 8 6 8 11 11 9 7 10 8 11 3 8 7 8 10 11 11 12 9 17 17 13 15 14 11 12 13 15 18 20 21 23 23 22 22 18 18 20 23 25 24 23 21 19 19 17 17 19 19 17 15 16 16 16 14 18 21 21 15 15 17 20 22 23 22 23 25 22 22 21 19 18 18 19 20 21
8 7 13 8 8 5 9 4 5 7 10 6 10 11 13 8 15 11 13 9 4 6 5 5 7 8 8 10 13 18 15 15 12 7 10 11 15 18 18 16 16 17 19 21 21 16 20 21 21 20 19 18 19 19 18 17 17 18 17 17 18 19 16 16 15 14 11 12 13 12 15 17 19 22 22 23 23 22 19 18 19 16 15 18 19 20
5 6 3 7 8 4 5 11 7 11 11 7 12 7 7 13 10 13 9 5 7 4 5 4 7 8 7 12 13 15 12 11 10 10 12 13 14 13 16 17 18 19 18 17 19 19 18 19 20 21 21 20 22 21 20 17 18 17 18 19 21 20 17 16 15 14 12 12 12 14 16 17 17 20 21 20 18 17 18 17 16 17 18 16 14 17
4 7 3 4 7 6 10 10 6 8 8 9 12 10 11 14 10 8 8 6 5 6 7 6 7 8 8 12 11 13 12 11 10 11 10 11 12 14 15 17 18 19 20 20 20 19 17 17 19 19 17 19 18 19 19 17 18 18 17 21 20 19 18 16 14 14 14 15 13 13 13 13 16 17 15 16 16 16 17 15 15 18 18 16 15 16
3 9 4 5 11 8 5 7 9 8 7 10 8 10 8 5 6 8 8 7 5 6 6 7 9 8 8 10 10 9 8 8 9 9 10 11 12 12 12 14 15 17 18 18 17 17 16 16 16 17 16 18 19 19 18 19 19 19 20 20 19 18 17 16 16 17 18 17 17 17 18 19 20 19 17 17 16 14 17 16 15 17 18 16 16 16
5 5 12 9 7 7 7 9 6 6 4 5 8 7 4 5 5 5 8 7 8 6 2 9 7 7 7 9 11 8 8 7 8 8 10 9 10 12 13 13 13 14 14 15 17 16 14 15 14 15 18 19 19 19 19 18 19 19 21 20 18 19 17 16 16 17 18 18 17 17 16 18 19 18 17 16 18 18 18 16 16 14 12 12 14 16
3 6 6 15 8 4 8 5 6 5 4 7 7 5 8 7 7 9 10 11 5 6 5 9 6 6 6 6 11 9 8 5 7 8 9 10 11 11 10 11 13 13 13 14 15 17 13 12 14 17 18 19 19 19 18 19 19 20 18 18 19 19 18 18 17 18 18 17 17 17 17 19 19 19 20 19 18 18 18 18 18 19 19 18 16 15
3 3 6 13 4 9 9 6 8 6 3 5 8 6 7 6 6 5 9 7 7 7 8 6 8 7 6 7 9 8 7 6 8 8 7 9 12 12 12 13 13 13 13 15 13 12 14 12 17 17 16 18 18 18 18 17 19 18 18 20 19 19 18 20 19 19 19 18 17 17 18 19 17 17 18 18 17 18 18 18 20 22 23 23 19 18
4 4 15 5 6 9 9 5 4 4 7 6 9 11 9 7 7 6 7 8 9 7 8 6 7 9 7 9 7 10 8 6 8 8 8 8 8 10 11 12 12 13 12 9 9 10 10 14 13 14 15 16 16 15 15 16 18 19 20 19 19 18 19 19 18 20 20 19 18 17 16 17 15 18 17 19 19 21 20 19 19 23 18 17 17 18
7 5 6 6 10 7 6 6 6 7 6 4 4 4 7 11 11 7 7 8 8 11 9 8 8 7 7 9 7 9 9 7 7 6 8 7 8 10 10 10 9 9 10 13 13 12 13 10 13 12 14 15 14 15 17 17 18 19 20 19 18 18 19 19 17 20 20 19 20 20 17 17 16 15 14 15 18 18 16 17 17 17 17 17 13 14
9 9 4 10 12 6 10 12 11 13 8 6 5 7 6 6 11 10 7 8 8 9 7 10 6 6 6 7 9 9 11 7 6 7 8 8 8 8 9 10 9 11 12 10 10 11 12 13 12 13 14 13 13 15 16 17 18 18 18 17 17 17 20 18 19 21 20 20 20 19 20 20 18 16 16 15 14 15 17 12 15 14 18 16 16 19
7 11 13 12 15 12 11 12 10 9 9 7 10 6 6 6 10 11 9 8 6 7 9 11 9 6 6 4 5 10 8 9 5 7 8 8 8 7 8 8 10 10 11 10 12 14 13 11 11 11 13 13 12 14 14 14 15 16 17 16 16 16 16 16 18 20 19 20 20 19 19 18 17 17 16 17 15 14 16 15 19 19 20 17 17 18
Wind_Speed
1 7 4 2 1 4 3 3 14 10 11 8 7 7 7 8 2 1 1 4 3 3 1 1 3 4 6 11 13 9 7 8 8 9 8 9 8 8 7 8 8 8 10 4 6 7 7 7 6 6 6 6 6 6 6 6 5 6 7 7 6 4 5 7 7 5 7 6 4 2 4 5 3 3 1 1 1 2 1 1 0 1 3 3 3 3
9 1 6 6 2 3 3 8 13 11 9 11 8 5 1 0 2 1 1 3 2 4 2 3 2 8 9 11 12 10 8 11 11 9 10 10 10 9 9 10 9 8 2 4 4 5 5 6 7 6 6 7 8 6 7 8 8 6 6 7 7 5 5 6 7 7 5 5 7 6 6 4 4 3 3 1 0 1 1 1 0 1 2 2 3 3
5 1 2 2 2 4 7 2 7 14 11 4 8 5 5 4 1 2 3 3 2 5 2 4 8 8 8 9 9 13 13 12 11 11 11 11 10 8 8 9 8 5 5 6 6 6 7 7 8 7 7 7 8 8 8 7 7 6 6 5 6 6 6 5 5 6 5 2 3 5 5 6 3 0 0 2 1 2 3 1 1 1 1 2 3 2
4 5 5 2 3 6 5 4 7 8 10 8 7 7 1 5 1 1 1 1 2 4 2 3 3 5 2 3 10 13 13 8 5 5 5 8 11 11 12 11 9 8 7 8 8 9 7 8 8 7 7 7 6 7 6 6 8 6 6 5 6 6 5 6 5 4 3 4 3 4 6 4 4 3 3 4 3 2 2 1 0 0 1 2 3 2
3 1 2 6 4 5 4 2 6 9 8 3 6 4 5 4 3 1 2 1 1 0 1 0 2 4 2 5 5 8 8 6 5 5 5 5 7 7 5 5 8 11 10 9 8 8 8 9 9 9 8 7 8 8 9 8 8 6 8 7 7 7 6 6 5 5 6 7 6 6 6 5 5 5 4 4 2 0 1 1 0 1 1 2 2 2
4 2 2 10 5 3 2 3 4 10 7 3 3 5 3 3 4 2 1 2 2 1 2 0 1 2 1 3 6 5 7 11 8 9 11 9 8 7 8 10 8 8 8 11 12 12 10 9 7 7 8 9 9 9 9 9 8 7 7 6 5 5 5 6 5 6 6 7 9 7 7 5 4 4 4 5 6 4 3 5 2 1 0 1 2 3
1 3 1 6 8 9 3 1 3 2 7 4 0 2 3 5 4 3 3 2 2 1 1 1 3 3 4 2 6 5 8 13 8 11 11 10 9 9 10 9 9 10 8 6 5 6 8 8 8 9 9 10 10 9 8 7 7 7 7 7 7 7 6 5 6 6 6 7 7 9 8 8 8 7 5 2 2 6 5 2 3 3 0 0 1 2
2 1 3 3 3 2 2 1 1 4 5 2 1 2 3 5 5 3 3 3 1 2 2 2 2 1 5 6 2 3 7 9 9 11 10 9 10 11 10 10 10 10 10 10 10 10 11 11 12 13 12 10 10 8 8 8 7 8 8 8 7 6 6 6 6 6 6 8 7 6 6 6 7 7 8 6 5 3 3 4 4 2 2 0 0 2
1 3 3 3 1 1 2 0 2 1 4 2 1 1 3 6 6 4 4 1 0 1 2 2 1 1 3 5 2 3 4 6 11 12 12 11 10 10 11 11 11 11 11 11 10 11 11 13 14 11 11 9 8 9 10 10 9 8 7 8 6 6 6 6 7 7 6 7 8 8 7 6 6 5 3 3 3 4 3 4 2 2 3 1 0 2
1 3 2 0 1 1 1 1 5 3 5 1 1 4 5 9 8 5 2 2 3 3 1 2 2 1 5 4 3 2 1 5 10 13 13 11 10 10 11 10 10 9 8 9 11 12 12 11 11 8 6 8 9 7 7 6 7 7 7 7 7 7 6 6 7 7 7 6 6 7 7 8 6 4 4 4 5 4 4 4 4 3 3 4 2 1
5 2 4 0 2 1 2 4 5 8 7 2 5 8 9 8 5 3 3 2 1 2 2 3 3 2 1 4 4 2 5 7 7 4 3 6 9 10 10 11 10 10 10 9 10 10 10 7 4 6 9 8 6 6 7 7 8 8 8 8 8 8 6 6 7 7 7 6 6 7 8 8 7 6 6 5 4 4 3 5 5 4 5 3 4 2
5 9 8 4 3 1 4 7 7 6 5 5 3 3 5 5 4 2 2 2 2 0 3 2 4 1 1 3 3 7 5 3 4 7 5 8 11 12 10 10 10 11 10 10 9 9 7 5 6 7 8 9 9 7 8 8 8 8 8 8 9 7 7 7 7 7 7 7 7 6 7 8 7 8 7 8 8 7 7 6 6 4 3 4 3 2
4 7 2 5 2 2 3 7 4 3 2 5 5 4 4 0 1 2 3 2 0 2 1 1 4 2 2 8 7 8 6 8 6 6 6 7 8 9 9 11 10 10 9 9 10 8 8 9 10 11 10 9 10 11 12 11 10 9 8 9 10 9 8 8 8 8 8 7 7 7 7 7 7 7 8 8 8 8 7 6 5 5 6 4 4 5
2 4 6 6 1 5 5 6 2 1 1 2 5 3 3 1 2 1 1 1 1 1 2 2 1 0 4 6 4 6 8 6 7 6 5 5 7 9 10 9 8 9 10 10 10 10 10 11 11 11 11 11 10 11 11 11 10 9 9 10 11 12 9 8 8 8 8 8 8 7 8 7 7 7 7 7 8 8 7 7 7 7 7 7 7 6
1 3 4 8 4 7 9 7 9 6 7 6 2 5 3 2 1 1 1 2 1 1 4 4 2 1 3 1 5 6 6 7 3 3 4 3 4 3 3 4 6 7 8 8 9 11 11 12 12 11 11 11 11 11 11 10 11 10 10 11 12 10 9 8 9 8 9 8 7 7 7 7 7 8 7 7 7 8 8 6 7 7 6 7 6 7
1 0 2 12 3 10 11 3 4 5 5 1 3 1 2 7 5 1 1 4 2 2 2 1 1 2 1 2 5 4 4 5 5 3 3 3 4 6 5 7 8 8 9 9 9 10 10 10 10 9 9 10 10 11 10 11 11 11 12 12 13 13 11 10 10 9 10 9 7 7 7 8 8 7 7 7 6 6 8 8 8 8 7 7 6 5
3 3 2 3 1 13 9 6 3 6 1 3 3 4 8 4 7 4 2 2 1 5 0 1 4 4 6 2 2 11 9 8 6 4 3 3 4 5 6 7 7 8 8 9 10 11 11 8 9 10 10 10 10 10 12 13 13 14 12 11 12 11 9 10 11 11 10 8 8 8 8 7 7 8 9 8 9 9 8 7 7 7 8 6 5 6
4 3 2 3 5 3 5 6 7 3 5 5 1 7 1 3 4 3 1 2 3 3 1 2 1 4 6 1 9 12 13 11 8 5 1 1 3 5 6 7 8 10 10 10 9 8 9 10 11 10 10 11 12 13 13 14 13 12 12 13 13 12 12 11 10 10 9 9 9 8 9 8 9 9 9 8 9 8 7 7 6 5 4 7 7 6
4 4 5 1 1 3 1 3 1 1 5 6 4 2 1 2 0 2 3 1 1 1 0 2 1 1 1 4 8 13 11 13 11 7 1 1 3 5 6 6 5 4 4 6 8 8 9 10 10 11 12 12 12 12 13 13 11 10 10 11 12 15 15 14 11 10 9 9 9 8 10 10 9 8 8 8 8 8 8 9 8 8 8 6 5 6
1 2 4 0 2 0 2 3 2 5 5 3 1 0 0 2 1 0 1 2 6 1 2 1 4 1 0 3 5 9 9 10 10 7 3 5 6 7 6 5 6 7 7 8 8 9 10 11 11 13 12 13 13 13 11 9 9 11 11 11 11 10 9 8 10 10 10 10 9 9 8 8 9 9 9 9 8 7 8 9 9 9 7 8 6 7
1 1 2 2 1 3 2 2 6 8 6 2 1 3 1 1 1 3 2 1 1 5 2 2 2 1 2 2 4 7 8 10 7 8 5 4 5 5 4 3 4 6 7 8 9 9 10 10 10 10 10 10 9 7 7 9 11 11 9 10 11 11 11 10 10 10 10 9 10 10 10 10 9 10 9 8 8 9 9 8 8 8 9 7 7 7
1 0 1 1 3 5 6 5 4 6 6 6 7 5 6 2 1 0 1 1 3 2 2 4 2 4 4 2 4 5 7 7 8 4 4 5 4 3 4 4 4 6 6 7 7 7 8 7 7 7 7 6 7 9 10 10 9 10 11 11 10 9 10 11 10 11 10 9 9 10 10 10 9 9 8 9 8 8 8 8 8 8 7 7 8 8
2 2 5 1 4 3 4 1 3 4 3 3 4 1 4 3 5 4 2 1 3 1 3 2 5 1 2 3 4 4 4 5 8 6 7 7 5 4 4 3 4 5 6 7 7 6 6 5 5 6 8 9 10 10 10 9 11 11 11 10 10 11 12 12 12 10 9 9 9 11 10 9 9 9 9 10 8 9 9 8 8 8 8 8 7 7
4 3 2 2 5 6 4 2 3 2 3 2 3 3 2 1 1 4 2 5 5 1 0 1 2 2 2 5 6 4 2 3 8 10 9 9 9 7 6 6 4 2 3 4 4 4 4 4 4 6 8 9 10 10 11 11 10 10 10 11 11 13 13 11 10 9 10 9 10 10 9 10 9 9 10 10 9 10 10 9 8 8 8 8 7 8
1 1 4 2 3 5 5 4 3 2 5 3 1 4 1 2 4 3 6 1 5 0 2 3 1 1 5 7 8 12 14 13 13 11 7 9 9 8 7 6 6 7 4 1 3 3 3 4 7 9 9 10 10 10 10 10 10 9 10 10 12 12 11 11 10 10 11 11 11 10 10 11 10 10 11 11 9 11 10 9 8 7 9 8 7 8
5 1 1 2 3 2 1 0 1 1 1 3 1 7 6 5 2 2 0 2 3 0 2 2 1 4 6 8 15 15 15 14 12 9 7 7 7 9 9 9 8 6 6 7 4 2 5 7 6 5 8 9 9 9 8 7 8 9 9 11 10 9 9 10 9 10 10 11 12 12 12 12 11 11 12 12 10 11 10 9 8 8 7 8 9 8
3 2 3 4 7 8 3 3 2 0 4 5 5 6 8 2 2 3 4 3 3 3 5 1 2 2 11 15 13 13 12 12 13 14 14 12 11 10 8 9 9 8 7 6 4 4 5 5 5 5 5 5 4 5 6 7 8 8 8 8 9 9 9 9 9 10 10 10 12 11 12 12 12 12 11 11 11 9 8 9 9 9 9 8 9 8
3 4 3 4 5 1 1 1 1 3 4 1 4 5 7 8 3 6 1 1 2 7 2 0 1 3 5 10 11 13 12 10 9 12 13 12 12 10 8 8 11 12 12 10 10 8 5 5 5 5 5 5 5 5 6 7 8 9 9 10 9 9 9 8 9 10 10 10 10 11 12 12 11 11 11 10 9 9 9 9 8 9 9 8 9 9
3 2 1 3 5 6 2 4 6 9 6 4 5 5 8 6 10 6 1 1 1 1 6 2 2 4 5 7 8 9 11 10 11 12 11 8 9 11 12 13 13 12 11 12 11 11 9 8 5 5 5 5 4 5 7 7 7 7 7 8 8 8 11 9 9 11 11 11 11 12 12 10 9 8 9 9 9 9 9 10 9 9 8 8 9 8
5 2 2 3 6 8 7 5 2 12 4 7 9 8 6 10 9 7 7 5 6 8 7 6 6 9 6 7 8 9 8 8 8 7 8 13 14 13 13 13 13 13 13 13 12 11 11 11 10 8 6 6 5 5 5 6 6 7 8 8 7 8 8 7 10 10 11 11 13 12 11 10 8 8 7 8 9 10 10 9 9 9 9 10 10 9
4 1 1 0 4 4 5 5 6 4 7 9 10 9 7 5 10 10 7 5 6 7 4 4 5 5 3 5 6 7 7 7 9 13 13 12 13 14 13 14 13 13 12 13 13 13 12 11 11 11 10 7 5 5 5 5 4 3 5 5 6 8 7 8 9 10 11 13 13 11 9 7 4 1 3 5 5 7 8 9 9 9 9 9 9 10
5 1 2 2 4 2 1 4 3 4 11 12 9 11 10 8 8 5 5 3 4 2 1 2 5 3 4 7 3 8 10 12 13 12 11 11 12 12 13 13 14 15 15 14 13 13 14 14 13 13 12 11 8 6 5 4 4 4 6 4 5 5 5 7 9 11 12 13 9 7 2 4 3 4 8 7 9 9 9 8 8 9 10 9 9 9
1 5 2 2 6 1 2 2 3 4 2 5 6 5 6 4 5 6 7 7 5 2 4 4 1 2 4 5 6 9 10 10 12 12 11 11 11 11 11 11 11 12 13 14 14 15 15 14 13 12 10 9 10 9 8 7 5 5 4 4 3 2 5 8 9 10 11 9 6 3 7 9 11 7 6 9 10 9 9 9 8 9 9 11 11 8
2 5 2 1 3 5 0 5 2 2 1 2 1 1 2 1 2 3 4 5 5 4 3 2 3 3 4 5 7 7 9 9 8 7 7 8 8 9 9 10 10 12 12 12 12 13 13 12 12 11 11 9 7 6 6 6 5 5 4 3 2 4 6 7 8 8 7 3 2 6 9 8 8 11 13 13 10 8 8 7 10 10 9 8 7 8
3 4 1 1 5 4 1 2 3 0 3 2 2 1 3 2 4 6 7 7 6 5 5 5 4 5 5 2 2 6 6 6 6 8 9 9 8 7 8 9 11 12 12 13 14 14 13 12 12 13 14 14 12 9 7 8 7 6 5 2 2 4 5 6 6 5 4 4 7 9 8 9 11 12 11 10 9 9 9 10 9 9 9 9 10 10
2 6 3 4 2 2 4 3 2 3 2 3 2 3 1 2 2 4 2 2 3 5 3 4 5 4 5 3 2 6 5 6 5 8 9 8 9 8 9 9 11 10 12 11 12 12 12 13 12 12 11 10 10 10 10 10 7 6 6 4 2 2 2 3 4 5 4 6 7 8 9 10 10 11 11 10 9 10 11 10 10 11 9 8 8 8
8 5 5 3 2 3 2 2 1 2 3 1 2 2 0 0 1 1 1 0 1 1 2 3 4 4 4 4 4 3 5 1 5 6 9 9 9 9 8 9 9 9 9 9 10 11 10 9 10 10 9 9 10 12 12 11 9 7 6 7 6 4 2 1 3 4 3 4 6 7 8 9 10 11 11 10 10 11 11 11 10 9 7 8 9 9
2 1 3 6 1 3 5 3 1 4 2 4 3 1 0 1 2 5 4 1 2 2 2 3 5 5 4 4 3 1 4 1 6 6 8 9 8 9 8 8 7 8 8 8 9 9 9 10 9 10 10 10 12 13 11 11 10 9 9 10 9 9 7 6 5 5 5 5 6 7 7 8 9 10 10 9 10 12 11 9 8 10 8 9 9 9
7 9 6 7 4 3 2 4 3 4 5 3 1 1 1 0 2 3 2 2 0 1 2 3 6 5 4 4 3 3 5 2 2 3 6 8 7 8 8 8 8 8 8 8 9 10 10 10 9 10 11 14 16 14 12 11 11 10 11 11 10 10 10 8 7 7 7 8 6 6 7 8 9 9 10 10 11 10 10 10 11 9 6 7 8 9
8 5 4 6 4 1 5 4 3 2 0 1 3 1 1 2 3 2 2 2 1 1 2 3 6 3 2 3 4 8 4 4 0 2 4 6 5 5 6 8 9 10 10 10 9 8 7 8 10 14 15 14 13 11 12 11 10 11 11 10 9 10 11 10 9 8 7 7 7 5 6 7 8 9 9 10 10 9 10 9 7 6 7 7 7 7
3 3 6 5 4 2 4 0 2 2 4 4 2 2 2 1 2 2 3 2 2 2 2 2 4 2 2 5 3 5 3 3 3 2 3 4 6 7 7 5 6 6 8 9 10 9 8 9 10 11 11 9 10 10 10 10 10 11 10 10 11 13 10 10 9 9 7 5 5 5 6 5 6 8 8 9 9 9 7 4 3 4 6 7 6 7
1 2 0 3 4 2 2 4 2 3 4 1 2 0 1 3 2 4 2 1 3 2 1 2 4 3 4 6 5 5 3 4 4 3 4 6 4 4 5 6 6 7 7 7 9 10 9 9 10 11 11 11 10 10 10 10 10 10 11 11 13 13 10 9 9 8 7 7 7 6 6 6 6 5 6 6 6 7 8 3 2 5 7 5 6 7
1 2 1 1 1 2 3 3 1 1 1 1 0 2 2 1 2 2 4 3 2 3 4 3 3 2 4 6 4 5 5 4 4 4 4 4 5 6 7 8 8 8 9 11 11 11 9 9 10 10 9 9 10 10 10 10 11 10 10 12 12 11 10 10 8 8 9 9 8 8 7 6 7 7 5 5 5 5 7 4 2 5 4 5 6 7
1 2 1 2 4 3 1 1 1 1 1 1 1 2 2 1 3 3 4 3 1 2 3 4 3 2 3 6 5 4 3 3 3 3 3 4 5 5 5 6 6 7 7 7 7 8 8 8 8 8 9 9 10 10 10 10 11 10 11 12 10 10 10 10 10 10 11 10 10 10 11 11 11 11 10 10 7 5 5 5 4 4 5 4 5 5
1 0 4 3 3 2 1 3 2 2 2 1 2 1 1 1 2 3 3 3 4 2 1 4 3 3 3 6 4 4 3 3 3 3 3 3 4 6 6 7 6 6 7 7 7 8 7 7 7 8 10 10 11 10 10 9 10 11 13 11 10 10 10 10 10 10 11 11 10 10 9 10 10 9 9 9 10 11 10 10 10 7 7 6 4 4
2 1 1 6 1 2 2 1 1 2 2 3 3 1 3 4 3 4 5 5 2 1 2 5 3 3 3 2 5 3 3 3 3 3 3 3 4 4 4 5 6 6 6 7 9 9 6 6 8 10 11 12 11 10 9 10 10 12 9 9 10 10 9 10 10 11 11 10 10 9 9 11 10 11 10 10 10 10 9 10 10 10 9 9 8 8
1 0 2 5 0 3 2 2 3 1 1 2 4 3 3 3 3 2 5 4 3 3 4 3 4 3 3 3 5 5 4 3 4 3 3 3 4 4 5 5 5 5 6 7 6 6 8 8 9 10 10 11 10 9 8 9 9 9 8 9 9 9 9 10 10 10 10 10 9 9 9 10 9 9 10 11 9 9 10 10 10 12 13 12 10 10
1 1 7 2 2 2 2 2 2 1 2 1 1 4 4 4 5 4 3 4 4 3 4 3 4 4 3 5 3 5 4 3 4 4 4 3 3 3 3 4 5 6 6 4 4 5 6 7 7 7 8 8 9 8 8 8 9 9 9 9 9 8 8 9 9 9 9 10 9 8 8 8 10 10 9 10 10 10 9 9 10 12 11 10 9 9
1 1 1 2 4 3 3 2 3 3 2 1 1 1 2 5 6 4 4 4 4 6 4 5 4 2 3 4 4 5 6 3 3 3 4 3 3 3 3 3 4 4 4 7 7 5 5 4 7 6 6 7 7 7 8 8 8 9 10 9 9 8 8 9 9 9 10 9 8 8 7 7 8 7 8 8 10 10 8 8 8 9 8 7 5 5
2 4 1 5 5 2 4 5 5 4 2 2 2 3 3 2 7 6 4 5 5 5 4 5 4 4 3 2 3 4 5 2 1 2 4 3 2 1 3 3 4 4 5 4 4 5 6 6 5 6 6 6 6 6 7 7 8 8 8 8 8 8 9 9 8 9 9 8 8 8 7 7 7 7 7 7 8 8 8 6 6 7 9 7 7 8
1 5 5 5 6 4 6 5 4 2 1 3 6 4 4 4 6 7 6 5 3 4 5 6 4 2 2 2 1 4 4 3 2 1 3 2 1 0 1 1 2 3 4 5 7 8 7 6 6 6 7 7 6 6 6 6 6 7 7 7 7 7 7 8 8 7 8 8 7 8 7 7 7 7 6 5 5 5 6 5 7 9 10 9 9 10
Wind_Direction
104 88 70 272 205 224 242 192 115 120 103 93 75 97 148 172 223 12 56 132 119 112 139 108 338 304 238 198 200 194 187 207 201 197 193 192 192 192 188 192 196 201 211 180 180 178 172 164 164 158 153 148 139 140 147 149 153 153 154 146 153 156 143 131 130 130 135 124 102 82 138 148 172 141 93 67 34 66 70 60 350 100 114 110 102 80
71 59 195 213 339 358 60 126 114 103 96 99 86 66 60 48 111 252 71 96 102 103 323 76 275 247 231 206 202 195 193 212 205 195 196 195 197 193 190 197 200 207 129 142 170 180 163 158 161 157 158 153 150 165 156 163 166 163 158 157 154 151 154 152 153 151 146 159 165 159 177 158 154 139 136 143 335 133 92 86 72 80 102 104 104 107
39 291 302 319 9 35 77 33 110 118 110 70 97 75 20 320 326 358 45 47 102 88 272 170 212 238 226 205 194 199 204 212 206 199 197 190 193 191 192 196 198 182 185 177 190 178 176 166 165 166 169 175 171 164 167 168 156 156 164 161 156 165 163 161 154 141 150 159 154 143 164 149 122 69 190 123 120 108 114 72 61 68 64 100 87 103
27 306 276 21 43 58 60 59 85 83 84 93 79 71 206 262 82 29 324 63 157 151 199 207 215 255 283 215 202 207 207 215 213 209 209 199 194 192 195 192 189 191 182 188 186 187 179 173 171 169 171 175 161 162 164 166 166 162 167 165 165 171 167 155 174 146 131 130 110 63 106 88 106 146 91 68 55 79 99 113 3 38 69 80 97 80
150 274 307 79 38 47 65 65 92 92 86 76 127 146 181 211 231 145 204 186 141 263 152 160 348 306 234 167 214 221 217 221 211 198 218 222 217 205 185 184 190 192 188 185 188 188 182 179 181 179 176 168 172 175 176 174 172 171 173 176 173 168 172 170 161 133 127 106 86 95 74 80 77 58 62 80 54 63 182 149 197 198 60 88 106 99
39 306 34 95 74 17 266 61 90 107 101 138 202 187 183 119 108 52 2 91 29 22 334 120 25 295 289 271 223 204 197 219 209 200 212 208 203 188 189 195 196 202 191 186 190 191 187 184 175 177 174 177 181 181 183 177 173 166 173 170 166 159 161 169 155 148 140 139 136 132 125 117 101 117 132 161 175 187 189 196 231 258 66 84 102 116
151 315 62 121 143 182 206 125 202 88 140 108 224 114 107 110 102 90 30 65 41 98 285 45 151 262 321 267 212 194 206 217 208 213 214 203 199 196 197 194 195 193 191 203 194 174 178 186 182 186 186 187 185 187 171 170 172 172 170 170 168 168 173 169 153 158 138 135 149 155 160 158 158 164 221 228 220 180 196 181 192 207 296 68 146 115
38 86 62 62 86 88 93 125 351 115 93 67 31 115 139 98 86 80 85 82 187 231 284 40 120 156 320 290 316 257 204 223 226 227 221 210 201 199 198 194 195 193 190 187 189 191 192 187 188 193 191 187 189 171 166 171 173 174 173 171 174 173 170 174 155 159 158 149 159 151 153 161 157 172 193 199 189 194 158 161 202 217 242 300 74 105
39 16 51 74 98 82 116 217 192 131 86 103 311 228 90 86 91 92 78 60 101 94 300 335 62 61 259 264 318 146 193 243 240 230 223 213 203 200 200 197 196 194 190 186 186 194 194 195 199 193 188 185 171 172 176 178 177 174 175 174 168 173 171 170 165 160 170 160 160 159 161 162 184 185 177 156 158 154 146 159 203 221 244 272 329 97
54 88 8 182 102 76 163 87 51 66 102 170 208 78 82 72 64 58 79 46 337 67 287 238 183 138 285 275 332 2 216 255 244 232 224 208 199 196 200 201 195 193 191 193 196 197 201 201 199 189 166 169 185 175 172 170 167 176 171 173 172 182 177 172 173 165 167 166 152 152 168 168 180 157 132 149 149 155 153 178 193 219 242 247 236 272
311 295 322 154 123 40 106 54 61 76 103 142 54 51 43 46 42 20 49 73 43 37 254 241 200 128 302 273 211 133 220 206 242 273 222 188 192 197 200 196 190 191 190 193 198 200 205 196 169 159 181 177 163 166 169 173 180 177 177 178 180 189 176 173 177 170 172 166 163 166 173 175 173 166 149 140 148 150 155 190 202 206 223 235 241 255
320 324 343 332 44 2 71 62 32 60 54 39 36 52 56 34 8 19 349 50 90 58 268 314 157 82 114 298 294 242 273 254 224 242 221 195 196 194 192 194 192 190 191 192 192 198 187 157 168 171 181 177 175 163 176 184 183 183 184 181 185 187 181 181 182 177 175 170 178 173 174 175 178 166 166 172 178 185 188 193 196 204 214 243 251 252
249 243 189 313 191 187 89 79 31 17 9 59 76 52 90 235 37 346 359 17 37 92 326 83 126 35 232 221 263 293 265 270 240 229 231 207 205 193 189 191 189 189 186 187 193 188 180 184 180 186 188 176 176 184 185 185 186 186 186 185 186 195 188 188 182 186 181 178 181 180 181 182 174 176 176 182 184 186 188 190 185 183 207 212 226 233
235 195 191 223 291 208 152 117 116 51 239 132 128 126 77 56 51 104 273 237 301 290 325 147 7 279 253 299 246 280 300 283 276 242 227 210 196 190 190 185 182 185 187 190 190 189 189 191 193 191 186 187 187 188 188 186 186 188 190 191 193 199 189 186 185 188 184 191 187 184 184 181 172 183 185 186 186 190 193 185 188 190 195 198 206 204
75 26 223 179 239 167 183 182 170 159 181 187 110 144 161 156 285 22 217 81 162 197 313 21 57 238 38 255 322 300 297 302 275 231 207 207 191 163 158 164 167 180 191 187 190 193 194 196 193 190 190 189 189 189 188 190 192 188 194 193 198 199 194 187 190 188 194 195 191 189 190 181 178 183 187 193 193 185 186 193 191 198 197 200 206 205
50 131 265 188 219 164 190 159 109 89 61 187 171 102 36 260 151 59 205 137 179 128 29 294 204 188 185 279 298 326 323 13 17 36 87 97 111 126 143 170 182 187 188 187 194 199 201 196 191 189 192 193 190 190 191 193 192 194 199 197 199 198 193 191 191 196 196 198 190 188 189 190 186 188 188 192 195 194 191 187 191 198 200 208 201 205
21 47 339 333 357 175 184 147 183 134 100 228 106 201 214 174 115 96 62 41 87 48 173 228 326 318 291 350 320 355 5 4 15 15 59 106 126 144 174 182 187 189 187 191 196 199 198 188 194 194 192 192 190 191 196 197 195 197 196 196 201 203 197 194 197 197 198 197 189 196 195 188 189 189 187 191 194 194 196 190 197 195 208 201 197 197
126 239 298 105 164 256 210 178 173 177 141 93 191 248 89 137 121 132 176 343 64 113 261 37 8 326 29 325 337 349 2 339 349 350 347 81 139 170 197 193 192 192 195 198 201 201 197 196 193 193 195 194 195 196 199 201 199 198 198 197 197 197 199 201 197 197 196 196 199 197 197 196 193 192 196 193 194 193 185 195 198 203 192 208 206 193
119 35 302 252 343 267 66 100 64 243 184 156 194 207 114 276 237 324 92 31 53 27 300 359 315 269 129 318 342 334 335 319 319 323 350 190 207 210 210 210 203 186 177 192 198 195 196 197 196 196 199 198 200 201 202 202 197 198 202 203 199 200 201 197 195 196 197 197 200 199 198 194 194 197 197 199 197 186 187 194 197 196 209 211 191 188
63 125 286 305 155 295 44 89 209 249 261 255 313 48 292 110 156 94 197 159 106 164 70 303 47 91 255 303 309 295 306 297 303 316 273 238 220 218 212 203 192 189 195 196 199 202 202 201 198 198 197 197 199 200 201 196 198 205 204 202 206 209 204 197 195 194 196 200 200 203 197 199 195 193 195 197 194 189 195 200 197 203 207 210 193 198
112 119 156 286 318 49 184 193 221 177 186 246 326 297 321 23 215 108 57 63 109 157 156 145 31 358 311 260 294 296 297 296 294 293 301 306 307 306 297 248 207 203 199 203 203 204 204 202 202 203 203 207 205 203 192 194 200 205 200 208 207 202 200 200 200 196 202 195 203 200 198 198 195 198 198 200 198 194 199 204 202 203 210 199 198 190
65 24 153 284 99 208 236 241 195 170 188 173 164 208 179 119 176 101 307 13 70 71 196 99 207 268 265 324 309 302 299 302 317 287 316 331 305 276 263 251 206 206 210 208 209 208 207 204 203 202 199 200 199 202 200 199 196 199 203 205 204 204 206 203 201 201 200 199 199 202 202 203 200 198 195 199 201 201 203 204 204 205 205 201 208 187
142 141 95 119 191 207 239 260 238 208 140 175 141 227 145 126 104 98 104 254 39 32 115 147 117 264 235 329 345 341 327 339 355 3 3 344 333 321 284 258 231 211 206 205 209 208 206 202 196 193 196 201 204 206 204 201 201 203 202 198 201 202 208 204 205 199 198 199 200 205 206 202 202 200 199 202 205 207 206 207 206 202 201 206 208 196
99 57 43 311 315 296 316 324 57 71 94 59 29 57 31 356 176 167 171 181 121 331 56 28 65 252 283 355 354 7 1 9 30 20 359 354 345 336 330 327 312 282 241 213 209 206 197 179 170 178 197 204 206 207 207 207 207 203 200 199 198 207 207 205 201 196 197 201 207 207 204 205 205 200 202 204 209 211 211 208 207 201 203 207 206 199
109 325 112 53 1 337 342 350 0 335 63 66 20 329 25 61 60 118 106 65 80 298 163 107 172 284 292 352 343 8 15 23 18 17 13 7 348 341 345 346 357 353 339 300 219 208 185 177 189 199 203 208 210 211 209 207 207 204 205 201 205 210 203 203 197 196 198 199 204 204 204 209 205 204 205 208 209 213 212 211 209 206 206 205 208 208
85 211 87 116 136 135 178 287 267 341 299 287 61 355 6 52 8 17 47 1 84 324 87 106 189 256 278 347 5 7 4 8 12 15 30 32 6 354 352 358 358 5 2 351 327 264 210 210 208 211 214 215 213 212 211 211 208 207 206 209 208 206 202 205 198 202 200 201 202 205 206 208 206 207 208 209 210 211 210 209 209 209 212 205 210 208
125 103 97 156 152 178 205 204 261 63 22 37 314 16 344 356 22 96 98 86 155 187 76 208 173 320 0 357 356 357 5 3 359 5 10 12 14 12 13 11 6 4 8 8 4 346 342 320 281 262 251 242 228 213 210 206 209 209 209 212 206 206 202 202 199 201 205 207 210 211 212 211 210 207 208 209 210 208 206 209 210 208 211 207 210 207
68 44 18 97 51 227 195 36 44 95 111 11 29 342 358 10 18 75 91 151 166 88 10 285 166 106 353 352 356 355 356 358 6 14 14 15 15 14 10 20 26 24 10 7 9 6 348 313 302 290 277 258 233 211 210 206 207 206 205 210 203 200 201 199 195 200 206 209 213 217 218 217 214 211 211 210 209 206 207 209 210 213 214 205 209 212
126 114 308 87 9 32 78 88 91 83 70 83 61 32 35 20 46 71 7 274 116 138 181 151 99 91 20 13 359 6 8 1 13 13 17 15 18 20 22 25 23 18 12 13 3 356 350 339 324 311 288 261 242 224 217 212 210 209 213 212 204 199 207 195 193 203 207 208 214 219 223 220 216 217 216 213 210 210 210 210 212 213 211 209 212 214
90 40 29 82 81 37 15 27 20 105 110 56 35 28 29 57 57 70 68 30 93 99 105 122 97 81 49 12 14 12 18 23 18 13 20 26 24 19 22 25 24 20 17 12 2 357 356 354 349 337 320 309 278 248 235 227 220 214 214 214 206 206 207 183 202 205 208 212 218 216 216 217 215 212 212 214 216 218 217 214 213 211 212 214 215 215
101 269 156 4 69 17 14 41 39 59 93 75 32 31 29 32 59 44 54 27 42 57 32 47 79 67 43 27 15 17 33 30 32 29 25 22 22 22 21 19 16 18 16 13 11 5 360 357 356 352 345 326 314 306 294 278 273 270 246 228 212 216 201 190 205 209 211 219 222 217 215 220 234 133 272 262 251 237 225 223 218 216 217 218 217 216
69 166 58 66 76 359 335 46 54 68 90 84 48 20 18 14 41 14 49 24 69 103 318 36 45 360 331 3 357 38 36 35 33 24 22 17 16 19 23 17 14 12 11 11 11 11 12 11 6 1 351 339 329 317 312 313 315 303 267 252 233 221 185 198 210 214 219 225 224 226 194 73 84 187 209 210 224 231 236 233 225 223 222 221 221 220
68 130 99 76 79 254 206 41 329 348 26 24 357 348 2 20 82 85 61 58 70 157 69 88 183 16 332 338 40 42 39 40 36 26 15 14 15 18 17 14 9 8 8 9 10 12 13 10 8 6 4 2 359 350 333 317 312 292 281 281 263 189 193 210 216 221 227 229 218 107 123 189 206 204 225 235 230 220 215 214 220 229 230 228 225 216
69 91 118 171 115 204 254 325 344 68 159 230 236 325 42 145 301 71 59 55 41 44 90 64 36 344 351 16 64 60 57 50 48 39 35 18 5 6 13 15 11 4 3 6 9 8 2 2 2 1 7 10 8 357 336 334 318 293 280 262 236 205 214 217 226 227 238 240 136 159 187 196 206 208 218 221 227 228 231 232 226 220 220 230 233 224
92 78 91 142 102 173 346 14 40 287 232 236 289 38 91 68 82 92 91 71 65 67 74 63 42 21 353 355 90 114 116 117 81 54 36 25 12 11 8 9 9 7 5 2 1 5 1 356 355 357 1 3 359 354 358 2 350 322 323 309 245 238 232 236 238 234 219 181 185 191 184 193 206 218 223 220 216 229 230 231 237 233 226 219 220 220
119 101 156 38 78 59 40 25 139 240 251 301 310 269 229 142 131 124 78 50 53 51 44 64 41 24 357 347 234 164 157 144 95 60 40 27 20 10 12 10 3 5 5 2 356 356 358 358 357 354 351 345 353 0 8 360 344 354 349 339 348 304 259 261 256 243 215 202 200 199 197 199 210 222 227 227 221 222 231 229 231 234 229 228 231 231
128 112 93 85 355 138 159 78 254 311 336 291 315 308 51 93 79 114 155 4 318 24 31 64 51 38 350 335 299 220 204 253 30 22 28 20 14 12 12 7 360 2 2 358 358 352 353 351 354 353 351 353 3 9 6 356 356 10 12 7 347 356 346 307 271 269 251 237 221 211 206 209 214 222 227 225 226 229 231 230 231 235 226 228 230 229
45 147 219 104 326 106 130 73 24 12 306 267 232 269 329 199 137 158 104 304 304 35 35 65 54 32 360 338 340 268 172 291 16 347 360 4 10 5 360 3 1 3 7 1 359 356 358 356 353 360 4 4 15 13 3 3 7 13 20 13 6 6 8 6 328 299 274 245 228 221 210 210 213 222 227 225 228 234 238 237 238 238 222 224 229 228
39 68 93 107 145 88 71 128 194 176 237 220 236 88 333 255 141 118 68 327 258 1 40 40 65 42 15 4 342 119 146 60 26 323 344 356 358 5 357 354 356 359 5 8 5 358 359 359 358 0 9 18 18 5 3 7 13 19 19 14 4 2 359 353 339 325 304 284 250 219 215 213 214 220 225 226 229 232 236 231 230 233 216 223 231 239
39 6 30 57 74 60 130 114 203 203 190 254 237 289 285 246 104 64 24 284 269 349 49 74 74 51 17 20 51 63 74 126 268 325 352 354 345 2 3 354 353 357 1 1 8 1 356 0 10 18 19 16 7 358 4 7 17 21 16 6 357 358 350 339 329 318 306 291 275 245 224 219 220 224 226 233 232 230 232 235 238 235 227 232 229 240
357 357 46 143 138 114 98 296 352 314 281 277 264 277 276 161 87 88 199 228 247 38 48 98 97 65 74 55 35 88 30 63 100 69 16 342 1 5 4 359 351 353 359 0 1 357 10 13 22 22 16 7 0 1 3 9 17 18 9 2 3 355 340 331 325 326 325 321 304 289 266 249 232 234 237 239 239 237 244 221 223 240 230 231 229 224
29 97 358 72 58 113 164 117 193 234 246 243 282 265 230 102 93 219 230 187 142 123 35 107 96 44 75 74 78 88 89 58 58 47 22 12 2 334 351 355 1 7 8 8 8 13 9 12 18 18 16 8 2 4 8 10 21 18 11 9 4 347 332 340 347 345 351 351 343 330 315 306 298 285 274 272 265 267 266 262 183 229 242 227 234 240
199 107 198 132 158 53 33 67 15 118 255 190 145 67 30 109 225 207 141 67 88 117 107 58 73 71 103 88 75 88 81 58 43 33 23 4 6 1 359 4 8 4 0 2 6 4 8 15 16 16 11 4 9 11 12 14 24 18 13 15 359 348 344 346 356 10 20 20 15 3 344 332 329 323 312 292 291 290 287 292 236 244 239 238 247 253
199 84 249 263 191 138 94 127 181 215 234 269 159 167 225 187 169 159 118 105 72 112 104 94 41 56 89 111 111 85 81 90 46 24 16 10 6 358 3 6 7 10 7 5 9 360 2 18 13 11 12 14 12 12 13 17 23 21 21 12 353 352 358 3 11 19 25 22 20 21 27 28 26 22 18 11 359 344 322 306 270 249 246 238 238 248
238 157 183 140 214 117 189 204 243 244 245 308 162 170 95 36 117 155 103 119 122 54 73 94 98 74 101 117 107 120 91 64 73 44 51 6 7 5 4 357 358 357 356 359 359 358 10 12 7 11 22 19 14 11 13 14 18 19 21 3 359 1 4 11 21 28 30 30 29 30 32 43 40 32 31 27 30 31 20 11 360 353 350 336 320 299
350 94 154 84 132 174 98 135 148 17 16 20 37 64 115 90 62 96 114 101 35 115 136 129 135 127 115 118 111 64 79 102 85 57 43 29 22 7 0 8 9 6 10 15 12 3 2 7 23 26 20 16 15 13 11 13 19 21 2 356 6 7 9 19 26 30 27 28 32 32 37 46 42 42 45 52 54 54 47 44 39 39 29 27 24 19
258 174 54 99 97 58 80 315 77 138 338 39 81 46 62 79 86 107 99 95 131 111 90 86 116 114 111 95 103 110 86 83 89 77 69 45 33 16 15 15 5 6 9 8 350 359 12 20 26 23 19 18 3 9 9 14 16 13 1 4 358 3 12 26 29 31 28 29 25 23 28 40 37 32 30 32 39 51 59 61 59 50 43 37 32 37
353 142 74 90 84 109 210 166 104 54 121 91 68 115 97 79 66 48 79 99 104 82 89 99 99 83 84 84 95 99 84 69 87 80 70 53 43 27 19 13 360 1 357 349 358 10 20 26 26 18 18 14 354 356 6 16 14 6 5 4 2 2 17 29 28 31 28 26 28 28 27 36 43 48 47 41 40 39 37 43 59 70 65 48 355 49
181 59 112 199 91 67 77 77 111 74 33 12 24 32 110 131 110 84 78 88 89 85 66 41 46 78 96 121 106 102 88 61 81 103 92 71 50 32 9 353 354 349 350 7 355 8 19 14 16 10 16 7 350 355 6 11 10 8 8 2 3 4 23 28 26 30 29 23 22 21 17 30 36 42 52 58 56 53 45 44 42 55 61 51 360 43
57 77 175 85 89 145 191 174 155 108 223 237 225 165 133 138 117 110 97 91 104 103 95 85 38 36 75 87 117 110 115 114 68 96 96 87 72 8 3 2 356 5 359 346 340 4 7 13 12 6 9 0 352 360 9 10 8 6 6 2 4 12 25 17 22 27 24 20 21 13 17 24 31 38 51 63 69 68 56 37 65 86 96 80 83 81
145 183 141 139 155 212 225 197 168 144 132 201 166 161 148 151 128 125 137 145 145 138 133 118 102 58 59 49 65 128 137 150 180 120 96 90 68 294 287 307 360 355 349 347 7 1 2 359 5 9 7 353 350 3 6 11 9 5 3 2 357 11 27 24 25 24 19 16 16 10 13 15 26 25 45 50 70 79 90 77 28 35 51 76 87 86